Time,TemperatureF,DewpointF,PressureIn,WindDirection,WindDirectionDegrees,WindSpeedMPH,WindSpeedGustMPH,Humidity,HourlyPrecipIn,Conditions,Clouds,dailyrainin,SoftwareType,DateUTC
2013-02-21 00:01:00,24.5,21.7,29.58,ENE,74,0.0,0.0,89,0.00,,---,0.00,VWS V12.07,2013-02-21 07:01:00,
2013-02-21 00:16:00,24.6,21.8,29.62,ENE,74,0.0,0.0,89,0.00,,---,0.00,VWS V12.07,2013-02-21 07:16:00,
2013-02-21 00:31:00,24.5,21.7,29.61,ENE,74,0.0,0.0,89,0.00,,---,0.00,VWS V12.07,2013-02-21 07:31:00,
2013-02-21 00:46:00,24.8,22.0,29.62,ENE,74,0.0,0.0,89,0.00,,---,0.00,VWS V12.07,2013-02-21 07:46:00,
2013-02-21 01:01:00,24.9,22.1,29.62,ENE,74,0.0,0.0,89,0.00,,---,0.00,VWS V12.07,2013-02-21 08:01:00,
2013-02-21 01:16:00,24.9,22.4,29.64,ENE,74,0.0,0.0,90,0.00,,---,0.00,VWS V12.07,2013-02-21 08:16:00,
2013-02-21 01:31:00,24.9,22.1,29.64,ENE,74,0.0,0.0,89,0.00,,---,0.00,VWS V12.07,2013-02-21 08:31:00,
2013-02-21 01:46:00,24.8,22.3,29.64,ENE,74,0.0,0.0,90,0.00,,---,0.00,VWS V12.07,2013-02-21 08:46:00,
2013-02-21 02:01:00,24.8,22.3,29.64,ENE,74,0.0,0.0,90,0.00,,---,0.00,VWS V12.07,2013-02-21 09:01:00,
2013-02-21 02:16:00,24.7,22.2,29.62,North,10,0.0,4.0,90,0.00,,---,0.00,VWS V12.07,2013-02-21 09:16:00,
2013-02-21 02:31:00,24.3,21.5,29.63,NNW,335,0.0,0.0,89,0.00,,---,0.00,VWS V12.07,2013-02-21 09:31:00,
2013-02-21 02:46:00,23.8,21.0,29.63,NNW,335,0.0,0.0,89,0.00,,---,0.00,VWS V12.07,2013-02-21 09:46:00,
2013-02-21 03:01:00,23.1,20.1,29.64,NNW,334,2.0,4.0,88,0.00,,---,0.00,VWS V12.07,2013-02-21 10:01:00,
2013-02-21 03:16:00,22.7,19.7,29.66,NNW,334,0.0,4.0,88,0.00,,---,0.00,VWS V12.07,2013-02-21 10:16:00,
2013-02-21 03:31:00,22.5,19.5,29.66,NNW,335,0.0,0.0,88,0.00,,---,0.00,VWS V12.07,2013-02-21 10:31:00,
2013-02-21 03:46:00,22.2,19.2,29.68,NNW,335,0.0,0.0,88,0.00,,---,0.00,VWS V12.07,2013-02-21 10:46:00,
2013-02-21 04:01:00,22.3,19.0,29.68,NNW,335,0.0,0.0,87,0.00,,---,0.00,VWS V12.07,2013-02-21 11:01:00,
2013-02-21 04:16:00,22.4,19.1,29.68,NNW,334,0.0,0.0,87,0.00,,---,0.00,VWS V12.07,2013-02-21 11:16:00,
2013-02-21 04:31:00,22.9,19.6,29.67,NNE,31,0.0,0.0,87,0.00,,---,0.00,VWS V12.07,2013-02-21 11:31:00,
2013-02-21 04:46:00,22.9,19.6,29.68,NNE,31,0.0,0.0,87,0.00,,---,0.00,VWS V12.07,2013-02-21 11:46:00,
2013-02-21 05:01:00,22.7,19.4,29.68,NNE,30,0.0,0.0,87,0.00,,---,0.00,VWS V12.07,2013-02-21 12:01:00,
2013-02-21 05:16:00,22.7,19.4,29.68,NNE,30,0.0,0.0,87,0.00,,---,0.00,VWS V12.07,2013-02-21 12:16:00,
2013-02-21 05:31:00,22.6,19.3,29.69,NNE,30,0.0,0.0,87,0.00,,---,0.00,VWS V12.07,2013-02-21 12:31:00,
2013-02-21 05:46:00,22.6,19.3,29.70,NNE,31,0.0,0.0,87,0.00,,---,0.00,VWS V12.07,2013-02-21 12:46:00,
2013-02-21 06:01:00,22.8,19.5,29.70,NNE,31,0.0,0.0,87,0.00,,---,0.00,VWS V12.07,2013-02-21 13:01:00,
2013-02-21 06:16:00,22.8,19.5,29.72,NNE,31,0.0,0.0,87,0.00,,---,0.00,VWS V12.07,2013-02-21 13:16:00,
2013-02-21 06:31:00,22.7,19.4,29.72,NNE,30,0.0,0.0,87,0.00,,---,0.00,VWS V12.07,2013-02-21 13:31:00,
2013-02-21 06:46:00,22.7,19.7,29.73,NNE,30,0.0,0.0,88,0.00,,---,0.00,VWS V12.07,2013-02-21 13:46:00,
2013-02-21 07:01:00,22.7,19.7,29.74,NNE,31,0.0,0.0,88,0.00,,---,0.00,VWS V12.07,2013-02-21 14:01:00,
2013-02-21 07:16:00,22.8,19.8,29.74,NNE,30,0.0,0.0,88,0.00,,---,0.00,VWS V12.07,2013-02-21 14:16:00,
2013-02-21 07:31:00,23.1,20.1,29.75,NNE,31,0.0,0.0,88,0.00,,---,0.00,VWS V12.07,2013-02-21 14:31:00,
2013-02-21 07:46:00,23.4,20.4,29.76,NNE,31,0.0,0.0,88,0.00,,---,0.00,VWS V12.07,2013-02-21 14:46:00,
2013-02-21 08:01:00,23.8,21.0,29.75,NNE,31,0.0,0.0,89,0.00,,---,0.00,VWS V12.07,2013-02-21 15:01:00,
2013-02-21 08:16:00,24.5,21.7,29.76,North,10,4.0,5.0,89,0.00,,---,0.00,VWS V12.07,2013-02-21 15:16:00,
2013-02-21 08:31:00,24.5,21.5,29.77,North,11,3.0,4.0,88,0.00,,---,0.00,VWS V12.07,2013-02-21 15:31:00,
2013-02-21 08:46:00,24.7,21.9,29.77,NNW,338,4.0,6.0,89,0.00,,---,0.00,VWS V12.07,2013-02-21 15:46:00,
2013-02-21 09:01:00,25.0,22.2,29.78,NW,318,0.0,2.0,89,0.00,,---,0.00,VWS V12.07,2013-02-21 16:01:00,
2013-02-21 09:16:00,25.3,22.2,29.78,SW,235,0.0,7.0,88,0.00,,---,0.00,VWS V12.07,2013-02-21 16:16:00,
2013-02-21 09:31:00,25.4,22.1,29.78,NNW,339,2.0,2.0,87,0.00,,---,0.00,VWS V12.07,2013-02-21 16:31:00,
2013-02-21 09:46:00,25.4,21.8,29.78,WNW,303,4.0,11.0,86,0.00,,---,0.00,VWS V12.07,2013-02-21 16:46:00,
2013-02-21 10:01:00,25.8,22.2,29.79,WNW,302,2.0,4.0,86,0.00,,---,0.00,VWS V12.07,2013-02-21 17:01:00,
2013-02-21 10:16:00,26.2,22.3,29.80,NW,313,2.0,9.0,85,0.00,,---,0.00,VWS V12.07,2013-02-21 17:16:00,
2013-02-21 10:31:00,26.2,22.3,29.80,NNW,334,3.0,5.0,85,0.00,,---,0.00,VWS V12.07,2013-02-21 17:31:00,
2013-02-21 10:46:00,26.0,22.4,29.80,NNW,346,3.0,9.0,86,0.00,,---,0.00,VWS V12.07,2013-02-21 17:46:00,
2013-02-21 11:01:00,26.2,22.9,29.81,NNW,331,5.0,5.0,87,0.00,,---,0.00,VWS V12.07,2013-02-21 18:01:00,
2013-02-21 11:16:00,26.5,23.2,29.81,NNE,30,0.0,7.0,87,0.00,,---,0.00,VWS V12.07,2013-02-21 18:16:00,
2013-02-21 11:31:00,26.6,23.5,29.80,North,5,2.0,2.0,88,0.00,,---,0.00,VWS V12.07,2013-02-21 18:31:00,
2013-02-21 11:46:00,26.5,23.4,29.80,North,9,1.0,9.0,88,0.00,,---,0.00,VWS V12.07,2013-02-21 18:46:00,
2013-02-21 12:01:00,26.7,23.6,29.80,NNE,13,5.0,10.0,88,0.00,,---,0.00,VWS V12.07,2013-02-21 19:01:00,
2013-02-21 12:16:00,26.6,23.5,29.80,North,9,4.0,10.0,88,0.00,,---,0.00,VWS V12.07,2013-02-21 19:16:00,
2013-02-21 12:31:00,26.5,23.4,29.79,NNW,342,5.0,5.0,88,0.00,,---,0.00,VWS V12.07,2013-02-21 19:31:00,
2013-02-21 12:46:00,26.5,23.4,29.78,North,10,7.0,11.0,88,0.00,,---,0.00,VWS V12.07,2013-02-21 19:46:00,
2013-02-21 13:01:00,26.5,23.4,29.80,North,9,5.0,5.0,88,0.00,,---,0.00,VWS V12.07,2013-02-21 20:01:00,
2013-02-21 13:16:00,26.9,23.8,29.78,NNE,25,3.0,7.0,88,0.00,,---,0.00,VWS V12.07,2013-02-21 20:16:00,
2013-02-21 13:31:00,27.1,23.8,29.78,NNE,19,1.0,4.0,87,0.00,,---,0.00,VWS V12.07,2013-02-21 20:31:00,
2013-02-21 13:46:00,27.1,23.5,29.78,NNE,22,5.0,7.0,86,0.00,,---,0.00,VWS V12.07,2013-02-21 20:46:00,
2013-02-21 14:01:00,27.1,23.8,29.79,North,9,0.0,2.0,87,0.00,,---,0.00,VWS V12.07,2013-02-21 21:01:00,
2013-02-21 14:16:00,28.9,25.2,29.78,North,5,0.0,5.0,86,0.01,,---,0.01,VWS V12.07,2013-02-21 21:16:00,
2013-02-21 14:31:00,28.5,24.0,29.78,NNE,21,0.0,0.0,83,0.02,,---,0.02,VWS V12.07,2013-02-21 21:31:00,
2013-02-21 14:46:00,29.3,24.8,29.78,North,360,0.0,7.0,83,0.04,,---,0.04,VWS V12.07,2013-02-21 21:46:00,
2013-02-21 15:01:00,29.6,24.2,29.79,North,5,2.0,2.0,80,0.09,,---,0.09,VWS V12.07,2013-02-21 22:01:00,
2013-02-21 15:16:00,28.5,23.1,29.81,North,355,0.0,6.0,80,0.10,,---,0.10,VWS V12.07,2013-02-21 22:16:00,
2013-02-21 15:31:00,28.1,23.0,29.82,North,355,0.0,0.0,81,0.11,,---,0.11,VWS V12.07,2013-02-21 22:31:00,
2013-02-21 15:46:00,29.7,24.3,29.79,North,355,0.0,0.0,80,0.10,,---,0.12,VWS V12.07,2013-02-21 22:46:00,
2013-02-21 16:01:00,29.8,23.5,29.80,North,355,0.0,0.0,77,0.11,,---,0.13,VWS V12.07,2013-02-21 23:01:00,
2013-02-21 16:16:00,29.2,21.6,29.80,North,355,0.0,0.0,73,0.05,,---,0.14,VWS V12.07,2013-02-21 23:16:00,
2013-02-21 16:31:00,29.0,21.8,29.80,North,355,0.0,0.0,74,0.05,,---,0.14,VWS V12.07,2013-02-21 23:31:00,
2013-02-21 16:46:00,28.5,22.2,29.80,North,355,0.0,0.0,77,0.03,,---,0.14,VWS V12.07,2013-02-21 23:46:00,
2013-02-21 17:01:00,28.3,22.3,29.82,North,355,0.0,0.0,78,0.04,,---,0.15,VWS V12.07,2013-02-22 00:01:00,
2013-02-21 17:16:00,27.7,22.0,29.82,North,355,0.0,0.0,79,0.02,,---,0.15,VWS V12.07,2013-02-22 00:16:00,
2013-02-21 17:31:00,27.2,21.9,29.83,North,355,0.0,0.0,80,0.02,,---,0.15,VWS V12.07,2013-02-22 00:31:00,
2013-02-21 17:46:00,26.6,21.9,29.83,North,355,0.0,0.0,82,0.01,,---,0.15,VWS V12.07,2013-02-22 00:46:00,
2013-02-21 18:01:00,26.3,21.9,29.86,North,355,0.0,0.0,83,0.01,,---,0.15,VWS V12.07,2013-02-22 01:01:00,
2013-02-21 18:16:00,26.1,21.6,29.86,North,355,0.0,0.0,83,0.00,,---,0.15,VWS V12.07,2013-02-22 01:16:00,
2013-02-21 18:31:00,25.6,21.2,29.86,North,355,0.0,0.0,83,0.00,,---,0.15,VWS V12.07,2013-02-22 01:31:00,
2013-02-21 18:46:00,24.5,20.1,29.88,North,355,0.0,0.0,83,0.00,,---,0.15,VWS V12.07,2013-02-22 01:46:00,
2013-02-21 19:01:00,24.4,20.3,29.90,North,355,3.0,3.0,84,0.00,,---,0.15,VWS V12.07,2013-02-22 02:01:00,
2013-02-21 19:16:00,24.3,20.2,29.88,North,355,0.0,5.0,84,0.00,,---,0.15,VWS V12.07,2013-02-22 02:16:00,
2013-02-21 19:31:00,24.4,20.5,29.89,North,360,4.0,5.0,85,0.00,,---,0.15,VWS V12.07,2013-02-22 02:31:00,
2013-02-21 19:46:00,24.3,20.5,29.90,North,360,3.0,5.0,85,0.00,,---,0.15,VWS V12.07,2013-02-22 02:46:00,
2013-02-21 20:01:00,24.0,20.1,29.90,North,360,0.0,0.0,85,0.00,,---,0.15,VWS V12.07,2013-02-22 03:01:00,
2013-02-21 20:16:00,24.1,20.5,29.90,North,360,0.0,4.0,86,0.00,,---,0.15,VWS V12.07,2013-02-22 03:16:00,
2013-02-21 20:31:00,23.9,20.1,29.90,North,360,0.0,0.0,85,0.00,,---,0.15,VWS V12.07,2013-02-22 03:31:00,
2013-02-21 20:46:00,23.7,20.1,29.91,North,360,0.0,0.0,86,0.00,,---,0.15,VWS V12.07,2013-02-22 03:46:00,
2013-02-21 21:01:00,23.9,20.6,29.91,North,360,0.0,0.0,87,0.00,,---,0.15,VWS V12.07,2013-02-22 04:01:00,
2013-02-21 21:16:00,23.9,20.6,29.90,NNW,348,0.0,0.0,87,0.00,,---,0.15,VWS V12.07,2013-02-22 04:16:00,
2013-02-21 21:31:00,23.9,20.9,29.90,North,360,0.0,0.0,88,0.00,,---,0.15,VWS V12.07,2013-02-22 04:31:00,
2013-02-21 21:46:00,23.7,20.7,29.90,North,349,0.0,0.0,88,0.00,,---,0.15,VWS V12.07,2013-02-22 04:46:00,
2013-02-21 22:01:00,23.6,20.6,29.90,North,349,0.0,0.0,88,0.00,,---,0.15,VWS V12.07,2013-02-22 05:01:00,
2013-02-21 22:16:00,23.5,20.5,29.90,NNW,348,0.0,0.0,88,0.00,,---,0.15,VWS V12.07,2013-02-22 05:16:00,
2013-02-21 22:31:00,23.2,20.5,29.92,North,360,0.0,0.0,89,0.00,,---,0.15,VWS V12.07,2013-02-22 05:31:00,
2013-02-21 22:46:00,22.8,19.8,29.92,North,360,0.0,0.0,88,0.00,,---,0.15,VWS V12.07,2013-02-22 05:46:00,
2013-02-21 23:01:00,22.6,19.6,29.92,North,360,0.0,0.0,88,0.00,,---,0.15,VWS V12.07,2013-02-22 06:01:00,
2013-02-21 23:16:00,22.8,20.0,29.90,North,360,0.0,0.0,89,0.00,,---,0.15,VWS V12.07,2013-02-22 06:16:00,
2013-02-21 23:31:00,22.8,20.0,29.90,North,360,0.0,0.0,89,0.00,,---,0.15,VWS V12.07,2013-02-22 06:31:00,
2013-02-21 23:46:00,22.7,20.0,29.90,North,360,0.0,0.0,89,0.00,,---,0.15,VWS V12.07,2013-02-22 06:46:00,